Simultaneous Nadir Overpasses (SNOs) Predictions

Prediction of SNOs between GOES-15 and NOAA-19 Satellite Orbit:

Table of predicted SNOs for the next 14.0 days since TLE Epoch: 10/3/2025
Index Date Time (GOES-15) GOES-15 Lat,Lon NOAA-19 Lat,Lon Distance(km) Time Diff (sec)
1 10/04/2025 06:07:40 0.61, 61.31 1.50, 57.34 451.39 80
2 10/05/2025 05:55:00 0.61, 61.31 0.80, 60.42 100.90 80
3 10/06/2025 05:42:19 0.60, 61.31 0.10, 63.50 249.52 80
4 10/08/2025 18:03:34 -0.62, 61.44 -1.19, 59.07 270.89 80
5 10/09/2025 17:48:14 -0.62, 61.45 -0.47, 62.15 78.82 80
6 10/10/2025 17:35:33 -0.62, 61.47 0.25, 65.22 428.41 80
7 10/12/2025 06:06:38 0.63, 61.38 1.45, 57.75 414.51 80
8 10/13/2025 05:53:57 0.64, 61.40 0.75, 60.82 65.06 80
9 10/14/2025 05:43:57 0.64, 61.41 0.04, 63.90 284.48 80
10 10/16/2025 18:02:28 -0.65, 61.55 -1.15, 59.49 236.12 80
